This is the latest recevied weather packets stored in our database for station/object F4THN-13. If no packets are shown the sender has not sent any weather packets the latest 10 day(s).
| Time | Temp. | Humidity | Pressure | Rain* | Wind** | Luminosity | Snow |
|---|---|---|---|---|---|---|---|
| 1777088762 | 8.33° C | 69% | 1017.4 hPa | 0 mm | - | - | - |
| 1777087262 | 8.33° C | 68% | 1017.5 hPa | 0 mm | - | - | - |
| 1777085762 | 8.33° C | 67% | 1017.5 hPa | 0 mm | - | - | - |
| 1777084262 | 8.33° C | 66% | 1017.5 hPa | 0 mm | - | - | - |
| 1777082776 | 8.89° C | 65% | 1017.5 hPa | 0 mm | - | - | - |
| 1777082762 | 8.89° C | 65% | 1017.5 hPa | 0 mm | - | - | - |
| 1777081262 | 9.44° C | 64% | 1017.3 hPa | 0 mm | - | - | - |
| 1777079761 | 9.44° C | 64% | 1017.2 hPa | 0 mm | - | - | - |
| 1777078261 | 9.44° C | 63% | 1017.4 hPa | 0 mm | - | - | - |
| 1777076761 | 10° C | 62% | 1017.5 hPa | 0 mm | - | - | - |
| 1777075261 | 10° C | 61% | 1017.5 hPa | 0 mm | - | - | - |
| 1777073761 | 10.56° C | 60% | 1017.6 hPa | 0 mm | - | - | - |
| 1777072261 | 11.11° C | 59% | 1017.8 hPa | 0 mm | - | - | - |
| 1777070761 | 11.67° C | 58% | 1017.7 hPa | 0 mm | - | - | - |
| 1777069260 | 11.67° C | 58% | 1017.6 hPa | 0 mm | - | - | - |
| 1777067760 | 12.22° C | 57% | 1017.6 hPa | 0 mm | - | - | - |
| 1777066260 | 12.78° C | 56% | 1017.4 hPa | 0 mm | - | - | - |
| 1777064760 | 13.33° C | 53% | 1017.5 hPa | 0 mm | - | - | - |
| 1777063260 | 13.33° C | 52% | 1017.3 hPa | 0 mm | - | - | - |
| 1777061760 | 13.89° C | 50% | 1017.2 hPa | 0 mm | - | - | - |
| 1777060259 | 15° C | 48% | 1017.2 hPa | 0 mm | - | - | - |
| 1777058759 | 16.11° C | 44% | 1017.1 hPa | 0 mm | - | - | - |
| 1777057259 | 17.78° C | 40% | 1016.8 hPa | 0 mm | - | - | - |
* Rain latest hour (hover to see other rain measurements)
** Current wind speed in m/s (hover to see current wind gust speed)